This is the latest recevied weather packets stored in our database for station/object SP6YY-15. If no packets are shown the sender has not sent any weather packets the latest 10 day(s).
| Time | Temp. | Humidity | Pressure | Rain* | Wind** | Luminosity | Snow |
|---|---|---|---|---|---|---|---|
| 1787645808 | 29.44° C | 33% | 1006 hPa | - | - | - | - |
| 1787645509 | 29.44° C | 33% | 1006 hPa | - | - | - | - |
| 1787645209 | 28.89° C | 34% | 1006 hPa | - | - | - | - |
| 1787644909 | 28.89° C | 34% | 1006.1 hPa | - | - | - | - |
| 1787644609 | 28.33° C | 34% | 1006 hPa | - | - | - | - |
| 1787644309 | 28.33° C | 34% | 1006 hPa | - | - | - | - |
| 1787644009 | 27.78° C | 34% | 1006 hPa | - | - | - | - |
| 1787643709 | 27.78° C | 34% | 1006 hPa | - | - | - | - |
| 1787643409 | 27.22° C | 34% | 1005.9 hPa | - | - | - | - |
| 1787643109 | 27.22° C | 34% | 1005.8 hPa | - | - | - | - |
| 1787642809 | 26.67° C | 34% | 1005.8 hPa | - | - | - | - |
| 1787642509 | 26.67° C | 34% | 1005.8 hPa | - | - | - | - |
| 1787642209 | 26.67° C | 34% | 1005.7 hPa | - | - | - | - |
| 1787641909 | 26.11° C | 34% | 1005.6 hPa | - | - | - | - |
| 1787641608 | 26.11° C | 34% | 1005.6 hPa | - | - | - | - |
| 1787641308 | 25.56° C | 34% | 1005.6 hPa | - | - | - | - |
| 1787641008 | 25.56° C | 33% | 1005.6 hPa | - | - | - | - |
| 1787640708 | 25.56° C | 33% | 1005.8 hPa | - | - | - | - |
| 1787640408 | 25.56° C | 33% | 1005.7 hPa | - | - | - | - |
| 1787640108 | 25.56° C | 33% | 1005.8 hPa | - | - | - | - |
| 1787639808 | 25.56° C | 32% | 1005.8 hPa | - | - | - | - |
| 1787639508 | 25.56° C | 32% | 1005.8 hPa | - | - | - | - |
| 1787639208 | 26.11° C | 31% | 1005.8 hPa | - | - | - | - |
| 1787638908 | 26.67° C | 30% | 1005.9 hPa | - | - | - | - |
| 1787638608 | 28.33° C | 29% | 1005.8 hPa | - | - | - | - |
* Rain since midnight (hover to see other rain measurements)
** Current wind speed in m/s (hover to see current wind gust speed)